| time (UTC) | temp F | wind direction | speed MPH | gust MPH | rain 1hr in | rain 24hr in | rain mn in | humidity % | barometer mb |
| 20260504220058 | 74 | 350 | 9.0 | 22.0 | 0.00 | 0.00 | 0.00 | 28 | 1003.9 |
| 20260504214557 | 75 | 354 | 6.0 | 20.0 | 0.00 | 0.00 | 0.00 | 27 | 1003.9 |
| 20260504213106 | 76 | 340 | 9.0 | 18.0 | 0.00 | 0.00 | 0.00 | 26 | 1003.7 |
| 20260504211652 | 76 | 5 | 7.0 | 20.0 | 0.00 | 0.00 | 0.00 | 27 | 1003.5 |
| 20260504210058 | 78 | 327 | 2.0 | 15.0 | 0.00 | 0.00 | 0.00 | 29 | 1003.2 |
| 20260504204558 | 77 | 5 | 5.0 | 14.0 | 0.00 | 0.00 | 0.00 | 29 | 1003.2 |
| 20260504203102 | 77 | 3 | 6.0 | 19.0 | 0.00 | 0.00 | 0.00 | 30 | 1003.3 |
| 20260504201611 | 77 | 340 | 8.0 | 19.0 | 0.00 | 0.00 | 0.00 | 32 | 1003.2 |
| 20260504200057 | 77 | 340 | 4.0 | 17.0 | 0.00 | 0.00 | 0.00 | 33 | 1003.2 |
| 20260504194558 | 78 | 336 | 4.0 | 20.0 | 0.00 | 0.00 | 0.00 | 32 | 1003.2 |
| 20260504193107 | 78 | 326 | 7.0 | 17.0 | 0.00 | 0.00 | 0.00 | 33 | 1002.9 |
| 20260504191611 | 79 | 338 | 5.0 | 17.0 | 0.00 | 0.00 | 0.00 | 33 | 1002.8 |
| 20260504190106 | 78 | 344 | 8.0 | 22.0 | 0.00 | 0.00 | 0.00 | 34 | 1002.7 |
| 20260504184556 | 79 | 324 | 7.0 | 17.0 | 0.00 | 0.00 | 0.00 | 32 | 1002.5 |
| 20260504183056 | 80 | 1 | 5.0 | 15.0 | 0.00 | 0.00 | 0.00 | 32 | 1002.5 |
| 20260504181601 | 80 | 328 | 5.0 | 15.0 | 0.00 | 0.00 | 0.00 | 29 | 1002.4 |
| 20260504180107 | 79 | 0 | 6.0 | 17.0 | 0.00 | 0.00 | 0.00 | 30 | 1002.4 |
| 20260504174557 | 79 | 311 | 4.0 | 17.0 | 0.00 | 0.00 | 0.00 | 30 | 1002.3 |
| 20260504173057 | 79 | 0 | 4.0 | 16.0 | 0.00 | 0.00 | 0.00 | 31 | 1002.4 |
| 20260504171556 | 78 | 293 | 4.0 | 18.0 | 0.00 | 0.00 | 0.00 | 32 | 1002.5 |
| 20260504081605 | 58 | 0 | 1.0 | 6.0 | 0.00 | 0.00 | 0.00 | 50 | 1004.1 |
| 20260504044556 | 64 | 0 | 1.0 | 3.0 | 0.00 | 0.00 | 0.00 | 40 | 1006.9 |
| 20260504043101 | 64 | 0 | 0.0 | 2.0 | 0.00 | 0.00 | 0.00 | 41 | 1007.1 |
| 20260504041558 | 63 | 283 | 0.0 | 2.0 | 0.00 | 0.00 | 0.00 | 41 | 1007.2 |
| 20260504040132 | 64 | 0 | 0.0 | 0.0 | 0.00 | 0.00 | 0.00 | 41 | 1007.3 |
| 20260504034601 | 64 | 0 | 0.0 | 0.0 | 0.00 | 0.00 | 0.00 | 41 | 1007.7 |
| 20260504033059 | 64 | 0 | 0.0 | 0.0 | 0.00 | 0.00 | 0.00 | 41 | 1007.9 |
| 20260504031606 | 65 | 0 | 0.0 | 0.0 | 0.00 | 0.00 | 0.00 | 41 | 1007.9 |
| 20260504030055 | 66 | 0 | 0.0 | 0.0 | 0.00 | 0.00 | 0.00 | 41 | 1007.9 |
| 20260504024603 | 67 | 0 | 0.0 | 0.0 | 0.00 | 0.00 | 0.00 | 38 | 1008.0 |
| 20260504023058 | 67 | 0 | 0.0 | 1.0 | 0.00 | 0.00 | 0.00 | 39 | 1008.0 |
| 20260504021557 | 69 | 0 | 0.0 | 0.0 | 0.00 | 0.00 | 0.00 | 36 | 1008.2 |
| 20260504020109 | 69 | 0 | 0.0 | 0.0 | 0.00 | 0.00 | 0.00 | 35 | 1008.4 |
| 20260504014556 | 70 | 0 | 0.0 | 0.0 | 0.00 | 0.00 | 0.00 | 34 | 1008.5 |
| 20260504013053 | 70 | 0 | 0.0 | 1.0 | 0.00 | 0.00 | 0.00 | 33 | 1008.4 |
| 20260504011553 | 71 | 0 | 0.0 | 0.0 | 0.00 | 0.00 | 0.00 | 32 | 1008.5 |
| 20260504010056 | 71 | 0 | 0.0 | 0.0 | 0.00 | 0.00 | 0.00 | 32 | 1008.6 |
| 20260504004555 | 72 | 0 | 0.0 | 4.0 | 0.00 | 0.00 | 0.00 | 31 | 1008.7 |
| 20260504003054 | 73 | 300 | 0.0 | 3.0 | 0.00 | 0.00 | 0.00 | 31 | 1008.8 |
| 20260504001556 | 73 | 290 | 0.0 | 6.0 | 0.00 | 0.00 | 0.00 | 30 | 1008.8 |
| 20260504000101 | 73 | 280 | 0.0 | 3.0 | 0.00 | 0.00 | 0.00 | 30 | 1009.1 |
| 20260503234624 | 74 | 290 | 0.0 | 3.0 | 0.00 | 0.00 | 0.00 | 29 | 1009.0 |
| 20260503233058 | 74 | 286 | 1.0 | 6.0 | 0.00 | 0.00 | 0.00 | 31 | 1009.1 |
| 20260503231556 | 74 | 0 | 0.0 | 5.0 | 0.00 | 0.00 | 0.00 | 29 | 1009.3 |
| 20260503230100 | 74 | 300 | 1.0 | 12.0 | 0.00 | 0.00 | 0.00 | 29 | 1009.2 |
| 20260503224557 | 75 | 317 | 2.0 | 9.0 | 0.00 | 0.00 | 0.00 | 29 | 1009.2 |
| 20260503223056 | 75 | 306 | 1.0 | 7.0 | 0.00 | 0.00 | 0.00 | 32 | 1009.2 |
| 20260503221601 | 75 | 317 | 1.0 | 8.0 | 0.00 | 0.00 | 0.00 | 31 | 1009.4 |